カタログに戻る

STARLINK-37265

運用中通信SSO
NORAD 69548·PAYLOAD·🇺🇸 United States

打ち上げ Jun 15, 2026 から Vandenberg Space Force Base

Loading…

次のパス (今後24時間)

TLE

最新Source: CelesTrak SupGP

元期: Sep 15, 2026, 04:06 UTC

1 69548C 26135C   26258.17131944 -.00055312  00000+0 -17172-2 0  2587
2 69548  97.2833 285.8804 0001279  88.7799 137.9389 15.33464897    19

AllMySatでSTARLINK-37265をリアルタイム追跡

Download on the App Store